Theta_e
283 285 284 283 284 285 284 286 281 284 284 289 291 291 294 297 297 296 296 297 296 297 299 301 302 302 299 299 300 300 302 304 308 312 316 318 320 321 323 323 324 324 323 323
277 284 284 283 284 285 285 286 285 285 285 292 294 293 291 292 291 290 290 291 291 293 294 294 294 295 298 302 302 301 300 302 306 308 310 311 314 316 317 319 320 321 321 321
269 281 280 273 280 283 284 286 285 281 287 291 287 288 287 285 286 287 287 288 289 289 291 291 291 293 295 294 299 302 299 299 300 303 304 307 309 308 308 313 316 316 318 320
270 272 269 280 284 284 284 286 287 287 286 282 282 285 285 284 282 284 285 285 286 287 288 288 290 291 291 291 292 296 299 297 295 295 298 299 298 300 305 307 310 311 315 318
275 266 273 277 281 280 279 278 281 281 280 279 280 285 283 282 282 282 283 283 285 286 285 286 287 288 287 287 289 291 294 295 294 294 294 294 295 300 303 303 305 308 311 311
261 261 262 276 281 284 284 275 278 277 276 275 278 278 281 279 280 280 281 281 282 283 283 283 285 285 284 284 285 287 290 290 293 292 290 292 295 297 300 302 303 303 299 303
260 261 269 279 283 287 272 274 275 274 274 273 272 275 276 277 278 278 278 279 280 279 279 280 283 281 281 282 282 285 285 286 288 290 290 292 294 295 297 297 295 293 293 293
263 261 266 278 281 280 274 273 273 272 272 271 272 272 273 273 274 275 275 276 277 276 276 279 280 279 279 279 282 283 283 283 285 288 289 289 289 293 291 292 292 294 292 291
275 274 275 274 272 272 272 271 271 270 270 270 269 269 270 270 272 273 273 273 274 274 274 275 277 277 277 278 280 281 280 282 284 287 287 287 288 290 290 291 294 294 292 294
277 275 272 271 270 271 271 270 270 270 269 269 267 269 269 271 270 270 271 271 272 271 270 270 271 274 274 276 277 276 276 280 284 285 286 287 288 289 290 291 292 293 292 293
273 272 270 270 269 269 269 269 269 269 268 268 267 268 268 268 268 269 269 269 269 268 267 267 269 270 271 273 273 272 274 278 283 285 286 286 287 287 288 291 292 291 292 292
272 268 268 269 268 267 266 266 266 266 266 266 267 266 266 266 267 267 267 267 267 266 266 266 266 266 268 271 270 270 272 276 282 284 286 286 286 286 289 290 291 291 292 292
266 267 267 267 268 266 265 265 265 265 265 264 265 265 264 264 266 266 265 266 264 264 266 265 264 265 267 269 269 269 271 273 281 283 285 285 285 285 285 287 291 291 292 292
265 266 265 264 263 264 264 264 264 263 264 263 263 263 263 263 264 264 264 264 264 264 264 264 263 264 267 268 268 269 272 275 279 281 283 285 285 286 286 285 286 286 289 290
261 262 262 262 262 262 262 262 260 261 261 261 261 261 262 261 262 263 264 264 264 263 264 263 262 263 267 267 267 268 271 273 274 276 280 282 285 285 285 285 285 284 284 287
256 254 255 255 256 256 257 257 257 259 259 260 260 260 260 262 263 263 263 264 262 261 262 262 262 263 266 266 266 268 270 272 272 273 274 276 278 282 282 283 282 282 283 284
253 252 250 249 250 251 251 251 253 255 257 258 258 259 260 261 262 262 262 262 263 261 262 261 261 264 264 264 266 267 268 269 271 271 271 272 274 275 277 279 280 281 281 280
251 251 250 250 250 249 251 250 252 252 253 257 258 258 258 258 259 260 261 261 261 260 261 260 262 264 263 263 265 266 266 267 268 268 269 270 270 271 272 273 274 274 274 275
252 252 250 250 250 251 251 251 252 252 253 256 256 256 257 257 258 259 260 260 259 258 259 260 264 262 262 262 264 265 264 265 265 266 266 267 268 269 269 269 269 270 270 270
251 251 251 251 251 252 251 251 250 250 252 254 254 254 254 256 257 258 259 258 259 258 259 260 260 261 261 261 263 263 263 263 263 263 264 264 265 265 266 267 267 267 268 268
250 251 251 251 250 249 249 249 248 248 249 249 250 252 253 254 256 257 257 256 258 258 258 259 259 260 260 260 261 261 261 261 261 261 261 262 262 263 264 264 265 265 266 266
255 253 252 250 248 247 247 245 245 245 245 246 247 247 248 252 254 254 255 256 257 258 258 257 258 260 259 259 259 258 259 259 259 259 259 260 260 261 261 262 262 263 264 265
252 251 251 250 248 247 244 244 244 243 245 245 246 248 249 251 253 253 253 254 256 256 257 256 258 259 258 257 256 256 256 257 257 257 257 258 258 258 259 260 260 261 262 262
253 250 249 245 242 244 246 246 243 244 243 244 245 245 246 251 251 251 254 255 255 255 255 256 257 260 256 255 254 254 255 255 255 255 255 256 256 256 257 257 258 259 259 260
247 244 243 243 245 246 243 243 244 244 243 244 244 246 245 248 247 251 252 252 254 253 253 255 258 257 253 253 253 253 253 253 253 253 253 253 254 254 254 255 255 256 256 257
243 244 243 243 244 244 244 244 244 244 242 246 244 244 245 246 248 250 250 251 251 252 252 252 252 252 252 252 252 252 252 252 252 252 252 252 252 252 252 252 253 253 254 254
241 243 243 245 244 244 243 244 243 245 242 240 244 247 245 247 247 249 249 250 250 250 250 250 251 252 251 251 251 251 251 251 251 251 250 250 250 250 250 251 251 251 252 252
Wind_Speed
1 6 2 4 6 10 14 17 10 18 15 25 13 8 12 16 18 19 17 16 17 18 17 16 17 16 10 8 9 9 8 9 12 13 11 12 13 14 15 16 18 19 19 18
1 3 5 9 11 7 6 5 10 9 19 18 15 10 9 9 10 11 14 16 17 17 17 19 19 19 20 19 16 11 9 11 11 9 9 10 11 12 13 14 15 16 18 18
5 3 1 9 7 13 12 8 8 11 23 21 11 11 12 11 12 13 15 16 18 18 17 18 20 19 19 22 22 19 15 9 9 10 10 12 12 10 12 14 14 15 17 17
4 5 4 6 3 4 10 11 8 14 9 12 9 10 6 12 15 15 16 18 18 18 20 19 19 20 20 20 21 21 18 15 10 9 11 10 8 11 13 10 14 13 15 16
5 5 5 6 7 4 6 3 8 6 10 11 14 10 6 15 15 15 17 17 17 16 18 21 20 19 21 20 19 20 18 17 16 11 11 8 9 13 13 10 12 13 14 15
4 6 9 7 2 1 3 5 9 10 11 14 13 4 4 25 24 18 16 17 18 19 19 17 18 19 19 18 19 19 19 21 20 15 10 10 12 13 11 12 14 9 10 11
3 3 8 7 8 6 4 4 7 8 8 10 6 4 15 19 21 18 20 21 20 18 17 19 17 20 21 20 19 19 20 21 20 18 15 12 12 9 10 11 8 8 9 7
4 3 9 5 0 4 3 7 6 7 9 11 13 15 14 13 17 21 20 20 19 20 19 17 18 18 20 21 22 22 22 22 20 19 14 9 9 10 7 8 10 11 9 7
10 7 5 8 13 9 7 3 4 7 9 11 16 16 15 14 14 15 20 20 17 17 21 18 16 16 20 20 21 22 21 23 19 18 14 11 11 10 8 9 10 10 9 10
6 3 8 11 10 8 5 6 6 7 11 13 14 17 17 15 15 15 15 18 17 19 19 20 18 17 17 19 19 19 21 21 19 16 15 12 8 7 9 8 9 11 10 10
6 8 11 8 9 7 5 6 8 9 10 12 15 16 17 17 16 15 16 15 16 17 17 19 19 19 18 17 18 18 18 18 17 14 15 13 10 7 8 9 8 8 9 7
4 6 1 5 6 8 7 8 9 11 12 12 12 15 17 14 14 15 16 16 15 16 17 18 18 18 18 17 18 18 17 14 13 12 11 11 9 8 10 13 11 13 10 7
6 3 2 1 6 10 8 9 9 9 10 12 12 12 14 14 13 16 15 15 15 17 17 17 17 18 17 18 18 18 16 17 13 12 10 10 8 8 9 5 11 14 13 11
5 3 5 5 1 6 7 8 7 6 5 8 9 9 10 11 12 13 13 14 15 16 14 16 17 17 18 18 19 18 16 19 13 12 10 10 8 8 7 7 5 3 8 10
5 4 3 3 4 5 6 6 6 7 9 9 7 8 10 11 12 13 13 12 14 14 14 16 17 18 19 19 19 19 14 11 13 11 11 12 9 8 7 6 5 2 1 2
3 3 4 4 1 3 4 4 4 7 7 9 10 11 12 10 9 9 11 13 14 14 16 17 17 19 19 18 19 15 14 19 15 10 10 10 11 9 5 4 3 3 3 3
5 1 2 1 2 3 3 4 4 4 6 6 9 10 11 11 9 10 10 11 10 12 12 15 18 19 19 17 18 12 12 13 18 11 10 10 9 9 9 8 6 3 2 3
4 4 4 5 3 2 5 4 4 3 3 6 8 9 9 9 10 10 11 11 10 10 10 15 17 19 18 18 17 12 11 12 12 11 11 11 11 10 10 9 9 9 8 10
3 4 2 3 4 4 5 4 3 4 4 4 6 7 9 8 9 10 10 10 10 12 14 16 20 18 17 19 19 11 12 12 12 11 12 14 12 11 11 11 10 10 10 9
2 1 1 2 2 3 3 3 3 4 4 4 5 5 7 8 9 10 10 8 6 8 14 15 15 14 16 17 19 11 12 13 12 11 12 11 11 12 11 14 12 11 10 9
4 3 2 1 2 2 1 2 2 4 5 4 3 5 7 9 7 8 9 8 10 12 14 15 11 11 11 15 12 11 11 11 12 11 11 12 11 11 12 12 12 11 11 10
3 3 2 1 1 3 3 3 1 3 4 4 4 5 5 7 9 8 4 6 9 15 12 9 9 15 13 16 10 10 11 11 10 10 10 10 11 11 11 11 11 11 10 9
4 4 3 3 3 4 4 2 3 2 4 4 4 5 5 4 5 6 8 7 9 12 9 8 14 17 18 9 9 10 10 11 10 10 10 10 10 10 10 10 10 10 10 10
3 3 3 2 1 2 3 4 4 4 3 5 4 4 3 6 6 3 5 9 12 12 9 9 12 16 14 8 9 9 9 9 9 9 9 12 9 9 9 10 9 10 10 11
3 2 1 2 2 2 2 3 4 4 4 5 5 5 4 3 3 7 7 8 11 10 8 11 14 14 7 7 8 8 8 8 9 9 9 9 9 9 9 9 9 10 9 9
3 3 3 5 4 3 3 0 2 3 2 4 3 3 4 4 4 5 4 6 7 9 7 7 7 7 7 7 8 8 8 8 8 8 9 8 9 8 9 9 9 9 9 9
2 2 1 2 2 3 2 2 1 4 2 2 5 5 4 5 5 5 6 6 6 6 6 6 6 8 7 8 8 7 7 7 8 8 7 7 7 7 8 8 8 8 8 8
Wind_Direction
189 303 113 199 226 222 216 240 233 264 258 270 289 292 291 285 289 294 323 359 6 1 354 339 334 329 304 275 269 262 249 242 245 249 244 239 235 228 226 224 222 220 220 221
29 196 258 275 256 206 227 241 254 273 269 275 281 269 280 283 18 34 357 355 355 355 352 350 341 333 328 320 301 282 254 249 244 244 238 232 229 225 227 224 224 222 221 219
244 242 80 299 219 225 238 213 226 243 257 281 359 358 22 39 33 8 356 349 346 341 338 337 331 329 329 327 323 312 288 265 243 239 238 236 235 229 221 224 223 222 223 220
191 58 241 240 71 205 212 241 260 263 320 31 359 304 98 46 21 357 348 343 340 335 334 333 327 326 327 327 323 320 313 282 261 243 244 244 232 233 236 229 223 219 222 222
160 202 304 308 267 210 187 222 27 344 0 5 342 303 203 31 10 344 338 333 326 327 326 321 324 327 326 325 324 323 318 304 288 273 259 245 241 242 241 230 231 226 224 215
98 152 209 220 195 30 208 232 25 21 5 356 350 19 323 339 338 332 330 326 323 324 321 322 321 326 321 321 322 320 325 318 309 290 261 257 254 250 245 235 236 223 223 219
182 213 285 255 321 345 106 284 37 29 1 345 341 302 313 313 314 319 320 321 326 324 319 322 327 325 321 321 319 317 314 310 306 299 281 265 261 247 237 238 237 219 221 214
83 75 276 21 281 201 58 60 23 10 352 327 312 310 310 311 310 313 319 326 327 320 323 325 326 323 318 317 319 317 315 310 305 300 291 277 253 258 238 219 230 235 221 226
177 200 60 33 98 90 62 85 16 343 334 321 312 316 321 318 317 323 319 320 321 318 317 319 321 320 313 316 314 317 313 311 306 304 297 283 272 268 254 236 233 231 221 227
125 131 126 110 88 58 48 51 5 344 324 324 317 322 322 324 328 323 323 319 320 324 319 318 320 315 311 314 315 316 308 308 310 310 306 296 280 262 254 243 236 243 230 223
80 85 107 106 60 53 40 20 356 341 337 331 327 325 329 326 323 323 322 319 322 320 320 317 315 317 315 318 321 314 308 304 307 312 310 304 288 266 258 257 245 241 239 222
182 139 144 110 45 47 31 14 2 347 339 338 332 329 331 323 323 324 324 320 322 320 319 319 321 316 317 324 321 314 308 304 304 306 306 302 294 288 255 254 258 266 265 222
140 136 114 323 117 31 21 9 358 344 338 333 332 333 324 321 321 325 325 327 326 323 317 323 322 319 320 327 321 313 308 304 303 306 304 301 294 288 288 265 247 241 239 223
76 137 120 68 354 7 5 356 350 327 336 333 325 320 318 322 322 328 336 330 324 322 322 327 324 324 329 330 324 317 313 313 322 313 310 307 297 286 277 276 272 260 237 211
80 38 71 88 48 25 4 349 349 353 340 334 336 327 328 332 337 333 326 330 331 325 328 333 330 329 335 334 329 323 325 324 326 319 323 322 302 285 273 264 265 227 200 191
130 89 87 80 37 353 334 346 348 332 339 337 340 335 323 316 323 334 339 336 345 337 331 335 331 328 337 336 334 330 332 331 334 332 335 344 341 324 296 265 228 215 221 192
99 66 68 63 228 298 296 281 266 293 320 335 330 326 321 324 334 338 335 338 342 333 332 337 332 332 337 338 341 338 334 336 341 345 353 353 349 345 348 343 338 336 348 311
134 137 160 165 209 268 298 277 293 314 308 317 331 330 326 326 330 330 328 329 341 338 346 341 335 340 338 338 344 342 344 343 345 349 349 2 3 358 3 357 10 16 8 16
146 156 178 187 220 226 248 278 310 294 303 334 345 336 316 308 319 320 328 327 345 342 341 335 337 338 339 338 347 341 346 349 350 353 358 2 3 5 8 9 13 21 15 23
77 95 176 236 254 208 273 288 315 320 311 347 334 331 315 319 326 325 328 326 350 327 327 329 338 335 340 339 342 344 347 349 353 355 0 2 4 2 3 11 15 17 24 27
175 182 205 204 266 297 278 298 354 331 313 336 339 308 303 306 316 324 327 327 340 337 333 335 343 340 340 340 342 343 348 350 353 354 1 358 356 1 3 2 6 17 20 17
169 178 213 239 250 286 297 316 45 342 340 333 319 296 306 313 324 324 296 304 329 332 333 337 340 340 343 343 344 344 346 349 353 351 356 358 356 357 0 0 1 2 14 7
179 191 197 200 217 252 298 346 354 345 314 303 311 311 307 289 300 312 327 325 326 323 331 326 332 343 351 346 342 342 346 351 351 350 351 350 353 352 352 356 356 356 360 360
182 194 209 220 197 67 11 303 330 306 274 290 291 283 297 325 314 265 302 309 316 328 325 324 336 344 346 341 341 342 344 345 344 343 348 349 346 347 348 351 351 352 352 356
186 196 155 80 87 234 245 276 318 326 336 318 309 300 289 267 212 300 309 311 318 325 322 325 335 336 333 333 334 336 335 333 338 339 342 341 341 343 344 344 344 345 344 346
169 202 203 201 210 205 227 202 279 286 317 318 293 277 290 282 275 277 281 300 307 310 309 313 319 322 325 326 329 327 323 326 330 331 333 331 331 335 335 335 337 339 336 333
258 209 269 304 246 216 216 225 285 289 285 264 278 278 279 296 294 299 301 311 309 305 302 303 310 317 316 319 320 318 316 315 320 321 318 315 318 319 321 323 324 321 319 320